www.pogodaiklimat.ru
ПОГОДА в Унече

Архив погоды в Унече (Брянская область, Россия)

Время
(UTC), дата
06 6.06
09 6.06
12 6.06
15 6.06
18 6.06
21 6.06
00 7.06
03 7.06
06 7.06
09 7.06
12 7.06
15 7.06
18 7.06
21 7.06
00 8.06
03 8.06
06 8.06
09 8.06
12 8.06
15 8.06
18 8.06
21 8.06
00 9.06
03 9.06
06 9.06
09 9.06
12 9.06
15 9.06
18 9.06
21 9.06
00 10.06
03 10.06
06 10.06
09 10.06
12 10.06
15 10.06
18 10.06
21 10.06
00 11.06
03 11.06
06 11.06
09 11.06
12 11.06
15 11.06
18 11.06
21 11.06
00 12.06
03 12.06
06 12.06
09 12.06
12 12.06
15 12.06
18 12.06
21 12.06
00 13.06
03 13.06
Ветер
(напр.,м/с)
Видим. Явления Облачность Т
(С)
Тd
(С)
f
(%)
Тe
(С)
Тes
(С)
Комфортность P
(гПа)
Po
(гПа)
Тmin
(С)
Tmax
(С)
R
(мм)
R24
(мм)
S
(см)
З 2 10 км 10/5 300 м
[Cb cap Ac trans Ci fib]
+18.8 +14.5 76 +20 +20 1008.2 986.7 +14.2
С 1 4000 м гроза, ливневой дождь 10/10 300 м
[Cb cap]
+17.8 +16.1 90 +19 +19 1008.3 986.7
Ю 1 10 км в посл. час гроза {ливн. дождь} 9/8 300 м
[Cb cap Ac trans]
+19.2 +17.0 87 +22 +24 комфорт 1009.5 988.0
З 2 10 км {ливн. дождь} 10/4 300 м
[Cb cap Ac cuf Cs]
+20.5 +14.9 70 +24 +25 комфорт 1009.2 987.7 11
СЗ 1 10 км гроза без осадков {ливн. дождь} 10/8 300 м
[Cb cap Ac und]
+18.8 +16.6 87 +21 +21 комфорт 1010.9 989.3 +22.2 11
СЗ 1 4000 м дымка {гроза, ливн. дождь} 4/0
[Ac As]
+15.1 +13.6 91 +16 +16 1012.6 990.7
СЗ 1 4000 м дымка {гроза, ливн. дождь} 3/0
[Ac As]
+14.9 +13.8 93 +15 +15 1012.6 990.7
СЗ 1 4000 м дымка 1/1 600 м
[Cu hum]
+15.0 +13.9 93 +15 +16 1014.0 992.0 +14.3 1
СЗ 2 10 км 8/8 300 м
[Cb cap]
+16.7 +14.5 87 +17 +19 1015.1 993.3 +14.3 1
СЗ 3 10 км 8/8 300 м
[Cb cap]
+21.6 +13.5 60 +24 +28 комфорт 1014.8 993.3
С 2 20 км 8/4 300 м
[Cb cap Ci]
+22.4 +10.2 46 +24 +28 комфорт 1014.8 993.3
СЗ 3 20 км 8/4 600 м
[Cu med, cong Ci fib]
+22.2 +9.4 44 +24 +25 комфорт 1014.8 993.3
штиль 0 10 км 10/0
[Ac cast Cs]
+16.9 +11.6 71 +17 +17 1015.2 993.3 +23.3
штиль 0 10 км 10/10 600 м
[Sc]
+14.7 +11.8 83 +14 +14 1015.3 993.3
штиль 0 10 км 9/9 600 м
[Sc]
+13.1 +11.3 89 +13 +13 1015.4 993.3
штиль 0 4000 м дымка 6/6 300 м
[Cb cap]
+12.8 +11.4 91 +12 +13 1014.1 992.0 +11.9
ЮВ 1 20 км 8/0
[Ci fib]
+20.2 +11.1 56 +23 +26 комфорт 1013.6 992.0 +11.9
ЮВ 1 20 км 10/8 300 м
[Cb calv Ci fib]
+24.2 +11.8 46 +26 +26 жарко 1012.0 990.7
Ю 2 10 км в посл. час гроза {ливн. дождь} 8/8 300 м
[Cb cap]
+23.1 +12.7 52 +26 +30 жарко 1009.3 988.0
ЮЗ 2 10 км {ливн. дождь} 9/6 300 м
[Cb cap Ac und]
+22.2 +13.5 58 +25 +26 комфорт 1009.3 988.0 0.5
С 1 {11} 10 км {ливн. дождь} 8/3 300 м
[Cb cap Ac lent]
+16.5 +13.6 83 +17 +17 1011.1 989.3 +24.3 0.6
З 1 10 км 3/0
[Ac trans]
+13.3 +11.7 90 +13 +13 1012.8 990.7
штиль 0 4000 м дымка 4/0
[Ac trans]
+12.8 +11.5 92 +12 +12 1012.8 990.7
штиль 0 4000 м дымка ясно +12.9 +12.0 94 +12 +12 1012.8 990.7 +10.3 0.1
СВ 1 10 км 8/8 600 м
[Cu med, cong Ci fib]
+16.1 +10.8 71 +17 +20 1012.6 990.7 +10.3
З 2 20 км 7 баллов +20.9 +8.8 46 +23 +28 комфорт 1010.8 989.3
Ю 2 20 км 10/5 600 м
[Cu med, cong Cs]
+22.6 +8.7 41 +24 +24 комфорт 1010.7 989.3
ЮЗ 2 20 км 10/4 300 м
[Cb cap Ac trans Cs]
+22.4 +9.2 43 +24 +24 комфорт 1009.3 988.0
штиль 0 10 км 9/4 300 м
[Cb cap Ac und Ci fib]
+18.1 +11.6 66 +18 +18 1009.6 988.0 +22.9
штиль 0 10 км 10/8 300 м
[Cb cap Ac As]
+16.6 +13.4 81 +16 +16 1009.7 987.9
ЮЗ 1 10 км 10/4 300 м
[Cb cap Ac As]
+17.9 +12.6 71 +19 +19 1009.7 988.0
штиль 0 4000 м слаб. ливневой дождь 10/8 300 м
[Cb cap Ac As]
+16.3 +14.8 91 +16 +16 1009.9 988.1 +16.0 1
штиль 0 4000 м слаб. ливневой дождь 10/8 300 м
[Cb cap Ac As]
+17.1 +15.3 89 +17 +17 1009.7 988.0 +16.0 2
Ю 1 10 км {ливн. дождь} 10/8 300 м
[Cb cap Ac As]
+19.8 +16.0 79 +23 +23 комфорт 1009.5 988.0
ЮВ 2 10 км {ливн. дождь} 10/8 300 м
[Cb cap Ci fib]
+23.2 +17.2 69 +28 +28 душно 1007.9 986.7
ЮВ 2 10 км 10/5 300 м
[Cb cap Ac lent Cs]
+22.8 +17.8 73 +28 +29 душно 1007.4 986.1 0.6
штиль 0 10 км 10/4 600 м
[Sc diur, vesp Ci]
+20.1 +17.1 83 +23 +23 комфорт 1006.7 985.3 +23.7 0.1
штиль 0 4000 м дымка 4/4 600 м
[Sc]
+18.0 +16.3 90 +18 +18 1005.5 984.0
ЮЗ 1 4000 м дымка 10/5 300 м
[Cb cap Ac und]
+18.9 +17.7 93 +21 +21 комфорт 1005.4 984.0
Ю 1 4000 м дымка {гроза, ливн. дождь} 10/0
[Ac As Cs]
+17.1 +16.0 93 +18 +18 1004.3 982.7 +17.0 5
Ю 2 10 км {гроза, ливн. дождь} 10/8 300 м
[Cb cap Ac As]
+19.7 +16.9 84 +23 +23 комфорт 1005.4 984.0 +17.0 5
ЮЗ 1 4000 м слаб. ливневой дождь 10/8 300 м
[Cb cap Ac As]
+21.1 +19.0 88 +25 +25 комфорт 1006.6 985.3
Ю 2 10 км в посл. час ливневой дождь 9/8 300 м
[Cb cap Ac trans]
+20.5 +17.5 83 +25 +26 комфорт 1006.7 985.3
Ю 1 10 км 10/6 300 м
[Cb cap Ac trans Ci fib]
+22.1 +18.1 78 +27 +27 душно 1006.5 985.3 2
штиль 0 10 км {ливн. дождь} 10/3 300 м
[Cb cap Ac lent Cs]
+20.6 +18.7 89 +24 +24 комфорт 1006.6 985.3 +22.5 2
штиль 0 4000 м дымка 10/0
[Ac trans Cs]
+17.3 +16.3 94 +17 +17 1008.3 986.7
ЮВ 1 1000 м дымка 10/4 300 м
[Cb cap Ac und Ci fib]
+16.6 +15.6 94 +17 +17 1008.4 986.7
штиль 0 4000 м в посл. час ливневой дождь 10/8 300 м
[Cb cap Ac As]
+17.1 +16.1 94 +17 +17 1008.4 986.7 +16.5 0.7
штиль 0 1000 м в посл. час туман {ливн. дождь} 10/10 300 м
[St]
+18.7 +17.9 95 +20 +20 1009.5 988.0 +16.5 0.4
В 1 10 км в посл. час ливневой дождь 10/6 300 м
[Cb cap Ac As]
+21.1 +18.1 83 +25 +25 комфорт 1008.0 986.7
СВ 1 10 км {ливн. дождь} 10/4 300 м
[Cb cap Ac As]
+22.3 +17.2 73 +27 +27 душно 1008.0 986.7
С 4 {10} 4000 м гроза, ливневой дождь 10/10 300 м
[Cb cap]
+18.6 +17.4 93 +19 +19 1006.8 985.3 29
С 3 4000 м слаб. ливневой дождь {гроза} 10/10 300 м
[Cb cap]
+16.3 +15.3 94 +16 +16 1008.4 986.7 +23.4 49
С 2 4000 м слаб. ливневой дождь 10 баллов +16.4 +15.4 94 +16 +16 1008.4 986.7
СЗ 3 {10} 4000 м 10 баллов +14.8 +13.7 93 +14 +14 1008.6 986.7
С 2 {10} 4000 м дымка 10 баллов +14.0 +12.9 93 +13 +13 1009.9 988.0 +14.0 29
Местоположение метеостанции Унеча (Брянская область, Россия): широта 52.83 долгота 32.67 высота над уровнем моря 186 м.
В архиве по умолчанию представлена погода в Унече за последнюю неделю. Архивные данные за месяц целиком и за предыдущие месяцы, начиная с января 2011 года, Вы можете получить, выбрав интересующий диапазон дат из раскрывающегося списка и нажав кнопку "Найти!".
*Определитесь, кто Вы:
Внимание! Время в таблицах - всемирное. Для получения местного времени необходимо прибавить поправку, которая равна 3 ч.
Некоторые строки с данными для отдельных станций могут быть выделены курсивом. Это означает, что фактические данные отсутствуют по различным причинам, а приведенные значения являются расчетными модельными данными для данного пункта наблюдений.
Смотрите также архив погоды в соседних городах и на ближайших метеорологических станциях:
Партнеры нашего сайта:
Поверка счетчиков воды без снятия
В продаже - счетчики воды, цены ниже! Неликвидные остатки
ekstralab.ru

     
Пояснения к столбцам:
  • Ветер - указаны скорость ветра в м/с - средняя за 10 мин, порывы в срок и между сроками (в фигурных скобках) и направление, откуда дует ветер: С - северный,
  • СВ - северо-восточный, В - восточный, ЮВ - юго-восточный, Ю - южный, ЮЗ - юго-западный, З - западный, СЗ - северо-западный.
  • Видимость - горизонтальная дальность видимости в метрах или километрах. При видимости от 1 до 10 км при отсутствии осадков обычно наблюдается дымка, при ухудшении видимости до 1 км и менее - туман. В сухую погоду видимость может ухудшаться дымом, пылью или мглою.
  • Явления - указаны атмосферные явления, наблюдавшиеся в срок или в последний час перед сроком; фигурными скобками обозначены явления, наблюдавшиеся между сроками (за 1-3 часа до срока); квадратными скобками обозначены град или гололедные отложения с указанием их диаметра в мм.
  • Облачность - указаны через наклонную черту общая и нижняя облачность в баллах и высота нижней границы облаков в метрах; квадратными скобками обозначены формы облаков: Ci - перистые, Cs - перисто-слоистые, Cc - перисто-кучевые, Ac - высококучевые, As - высокослоистые, Sc - слоисто-кучевые, Ns - слоисто-дождевые, Cu - кучевые, Cb - кучево-дождевые. Подробнее классификацию облаков см. в Атласе облаков (PDF).
  • T - Температура воздуха - температура, измеренная на высоте 2 м над землей.
  • Td - Температура точки росы - температура, при понижении до которой содержащийся в воздухе водяной пар достигнет насыщения.
  • f - Относительная влажность воздуха - влажноcть воздуха, измеренная на высоте 2 м над землей.
  • Te - Эффективная температура - температура, которую ощущает одетый по сезону человек в тени. Характеристика душности погоды. При расчете учитывается влияние влажности воздуха и скорости ветра на теплоощущения человека.
  • Tes - Эффективная температура на солнце - температура, которую ощущает человек, с поправкой на солнечный нагрев. Характеристика знойности погоды. Зависит от высоты солнца над горизонтом, облачности и скорости ветра. Ночью, в пасмурную погоду, а также при ветре 12 м/с и более поправка равна нулю.
  • P - Атмосферное давление - приведенное к уровню моря атмосферное давление.
  • Po - Атмосферное давление - измеренное на уровне метеостанции атмосферное давление.
  • Tmin - Минимальная температура - минимум температуры воздуха на высоте 2 м над землей.
  • Tmax - Максимальная температура - максимум температуры воздуха на высоте 2 м над землей.
  • R - Количество осадков - Количество выпавших осадков за период времени, мм. При наведении курсора мыши на число - период времени, за который выпало указанное количество осадков.
  • R24 - Количество осадков - Количество выпавших осадков за 24 часа, мм.
  • S - Снежный покров - Высота снежного покрова, см. При наведении курсора мыши на число - состояние снежного покрова и степень покрытия местности в баллах.